Regional Weather Roundup
Issued by NWS

Home | Current Version | Previous Version | Graphics & Text | Print | Product List | Glossary Off
Versions: 1 2 3 4 5 6 7 8 9 10 11 12 13 14 15 16 17 18 19 20 21 22 23 24 25 26 27 28 29 30 31 32 33 34 35 36 37 38 39 40 41 42 43 44 45 46 47 48 49 50

000
ASUS43 KTOP 201208
RWRKS

WEATHER ROUNDUP FOR KANSAS
NATIONAL WEATHER SERVICE GOODLAND KS
700 AM CDT SUN MAY 20 2018

NOTE:  "FAIR" INDICATES FEW OR NO CLOUDS BELOW 12,000 FEET WITH NO
SIGNIFICANT WEATHER AND/OR OBSTRUCTIONS TO VISIBILITY.

KSZ001>006-013>018-027>032-041>047-201300-
NORTHWEST KANSAS

CITY           SKY/WX    TMP DP  RH WIND       PRES   REMARKS
GOODLAND       CLOUDY    45  43  93 NW13      30.21S
6HR MIN TEMP:  44; 6HR MAX TEMP:  46;

HAYS           CLOUDY    52  49  89 NW13      30.12R
HILL CITY      CLOUDY    51  49  92 NW10G22   30.15R
6HR MIN TEMP:  50; 6HR MAX TEMP:  52; 6HR PCP: TRACE;

RUSSELL        CLOUDY    52  52 100 NW9       30.11R
6HR MIN TEMP:  51; 6HR MAX TEMP:  53;

$$

KSZ061>065-074>080-084>089-201300-
SOUTHWEST KANSAS

CITY           SKY/WX    TMP DP  RH WIND       PRES   REMARKS
DODGE CITY     CLOUDY    49  44  83 NW15G26   30.11F
6HR MIN TEMP:  48; 6HR MAX TEMP:  51;

ELKHART        CLOUDY    50  45  81 N13G21    30.22R
GARDEN CITY    CLOUDY    47  44  90 N16       30.16F
6HR MIN TEMP:  47; 6HR MAX TEMP:  50;

GREAT BEND     CLOUDY    52  49  89 N8        30.12R
LIBERAL        CLOUDY    49  43  80 N21       30.15F
PRATT          CLOUDY    52  47  83 N12       30.11R
6HR MIN TEMP:  51; 6HR MAX TEMP:  58;

$$

KSZ066>073-081>083-090>101-201300-
SOUTHEAST KANSAS

CITY           SKY/WX    TMP DP  RH WIND       PRES   REMARKS
CHANUTE        LGT RAIN  65  65 100 S12G21    30.10R
6HR MIN TEMP:  65; 6HR MAX TEMP:  68; 6HR PCP:  0.51;

COFFEYVILLE    LGT RAIN  66  64  93 W3        30.05F
6HR MIN TEMP:  65; 6HR MAX TEMP:  68; 6HR PCP:  1.55;

HUTCHINSON     CLOUDY    56  53  90 NW12      30.09R
6HR MIN TEMP:  56; 6HR MAX TEMP:  64;

MEDICINE LODGE   N/A     54  49  83 N10G17      N/A
NEWTON         CLOUDY    57  55  93 N10       30.07R
PARSONS        RAIN      65  65 100 N5        30.10R
6HR MIN TEMP:  65; 6HR MAX TEMP:  69; 6HR PCP:  0.74;

WICHITA INTL   CLOUDY    60  57  89 N12       30.05S
6HR MIN TEMP:  59; 6HR MAX TEMP:  75;

WICHITA JABRA  CLOUDY    58  58 100 N10       30.06R
6HR MIN TEMP:  57; 6HR MAX TEMP:  70; 6HR PCP:  0.25;

WICHITA MCCONL LGT RAIN  59  56  91 N8        30.06R
WINFIELD       CLOUDY    61  60  97 N9        30.06R
6HR MIN TEMP:  61; 6HR MAX TEMP:  69; 6HR PCP: TRACE;

$$

KSZ007>012-019>026-033>040-048>060-102>105-201300-
NORTHEAST KANSAS

CITY           SKY/WX    TMP DP  RH WIND       PRES   REMARKS
CONCORDIA      CLOUDY    54  53  97 NW8       30.09R FOG
6HR MIN TEMP:  54; 6HR MAX TEMP:  57;

EMPORIA        LGT RAIN  60  58  92 CALM      30.05R FOG
6HR MIN TEMP:  60; 6HR MAX TEMP:  68; 6HR PCP:  0.03;

LAWRENCE       MOCLDY    65  63  93 SE3       30.03R
6HR MIN TEMP:  63; 6HR MAX TEMP:  67;

MANHATTAN      CLOUDY    59  56  89 N3        30.07R FOG
6HR MIN TEMP:  58; 6HR MAX TEMP:  62;

MARYSVILLE     CLOUDY    57  55  94 NE5       30.08R FOG
OLATHE IND     TSTM      64  63  96 E7        30.05R FOG
6HR MIN TEMP:  62; 6HR MAX TEMP:  67; 6HR PCP:  0.25;

OLATHE EXE     CLOUDY    63  62  97 S8        30.05R
6HR MIN TEMP:  62; 6HR MAX TEMP:  65; 6HR PCP:  0.01;

SALINA         CLOUDY    58  55  90 NW12      30.09R
6HR MIN TEMP:  58; 6HR MAX TEMP:  61;

TOPEKA BILLARD CLOUDY    64  62  93 NW6       30.03R
6HR MIN TEMP:  62; 6HR MAX TEMP:  66;

TOPEKA FORBES  CLOUDY    65  61  87 CALM      30.04R THUNDER
6HR MIN TEMP:  64; 6HR MAX TEMP:  67;

$$




USA.gov is the U.S. government's official web portal to all federal, state and local government web resources and services.